TimeCDT,TemperatureF,Dew PointF,Humidity,Sea Level PressureIn,VisibilityMPH,Wind Direction,Wind SpeedMPH,Gust SpeedMPH,PrecipitationIn,Events,Conditions,WindDirDegrees,DateUTC
12:15 AM,53.6,46.4,77,30.21,10.0,Calm,Calm,-,N/A,,Overcast,0,2012-10-12 05:15:00
12:35 AM,53.6,48.2,82,30.21,10.0,Calm,Calm,-,N/A,,Overcast,0,2012-10-12 05:35:00
12:55 AM,53.6,46.4,77,30.23,10.0,SSW,3.5,-,N/A,,Overcast,210,2012-10-12 05:55:00
1:15 AM,53.6,44.6,72,30.23,10.0,WSW,6.9,-,N/A,,Overcast,240,2012-10-12 06:15:00
1:35 AM,53.6,44.6,72,30.21,10.0,WSW,5.8,-,N/A,,Overcast,240,2012-10-12 06:35:00
1:55 AM,53.6,46.4,77,30.22,10.0,WSW,4.6,-,N/A,,Overcast,250,2012-10-12 06:55:00
2:15 AM,53.6,46.4,77,30.20,10.0,SW,4.6,-,N/A,,Overcast,220,2012-10-12 07:15:00
2:35 AM,53.6,46.4,77,30.22,10.0,West,5.8,-,N/A,,Overcast,260,2012-10-12 07:35:00
2:55 AM,53.6,46.4,77,30.23,10.0,Calm,Calm,-,N/A,,Overcast,0,2012-10-12 07:55:00
3:15 AM,53.6,46.4,77,30.22,10.0,Calm,Calm,-,N/A,,Overcast,0,2012-10-12 08:15:00
3:35 AM,53.6,46.4,77,30.22,10.0,Calm,Calm,-,N/A,,Overcast,0,2012-10-12 08:35:00
3:55 AM,51.8,46.4,82,30.23,10.0,Calm,Calm,-,N/A,,Overcast,0,2012-10-12 08:55:00
4:15 AM,51.8,46.4,82,30.22,10.0,Calm,Calm,-,N/A,,Overcast,0,2012-10-12 09:15:00
4:35 AM,51.8,46.4,82,30.23,10.0,Calm,Calm,-,N/A,,Overcast,0,2012-10-12 09:35:00
4:55 AM,51.8,48.2,88,30.23,10.0,Calm,Calm,-,N/A,,Overcast,0,2012-10-12 09:55:00
5:15 AM,51.8,48.2,88,30.23,10.0,Calm,Calm,-,N/A,,Mostly Cloudy,0,2012-10-12 10:15:00
5:55 AM,48.2,44.6,87,30.25,5.0,Calm,Calm,-,N/A,,Partly Cloudy,0,2012-10-12 10:55:00
6:15 AM,46.4,44.6,93,30.25,5.0,Calm,Calm,-,N/A,,Clear,0,2012-10-12 11:15:00
6:35 AM,46.4,42.8,87,30.26,6.0,Calm,Calm,-,N/A,,Partly Cloudy,0,2012-10-12 11:35:00
6:55 AM,46.4,42.8,87,30.27,4.0,Calm,Calm,-,N/A,,Partly Cloudy,0,2012-10-12 11:55:00
7:15 AM,46.4,44.6,93,30.29,5.0,Calm,Calm,-,N/A,,Partly Cloudy,0,2012-10-12 12:15:00
7:35 AM,46.4,44.6,93,30.30,6.0,Calm,Calm,-,N/A,,Mostly Cloudy,0,2012-10-12 12:35:00
7:55 AM,48.2,46.4,93,30.30,5.0,NNE,5.8,-,N/A,,Overcast,20,2012-10-12 12:55:00
8:15 AM,48.2,46.4,93,30.31,10.0,NNE,6.9,-,N/A,,Partly Cloudy,30,2012-10-12 13:15:00
8:35 AM,50.0,44.6,82,30.32,10.0,NNE,10.4,-,N/A,,Clear,30,2012-10-12 13:35:00
9:15 AM,51.8,44.6,76,30.32,10.0,NE,15.0,19.6,N/A,,Clear,40,2012-10-12 14:15:00
9:35 AM,53.6,44.6,72,30.34,10.0,NE,10.4,20.7,N/A,,Clear,40,2012-10-12 14:35:00
9:55 AM,53.6,44.6,72,30.34,10.0,NE,11.5,-,N/A,,Clear,50,2012-10-12 14:55:00
10:15 AM,55.4,44.6,67,30.34,10.0,NE,11.5,-,N/A,,Clear,40,2012-10-12 15:15:00
10:35 AM,-9999,-9999,N/A,30.34,10.0,ENE,6.9,-,N/A,,Partly Cloudy,60,2012-10-12 15:35:00
11:15 AM,57.2,46.4,67,30.36,10.0,East,4.6,-,N/A,,Overcast,90,2012-10-12 16:15:00
11:35 AM,60.8,46.4,59,30.36,10.0,East,5.8,-,N/A,,Overcast,80,2012-10-12 16:35:00
11:55 AM,60.8,46.4,59,30.36,8.0,NNE,4.6,-,N/A,,Scattered Clouds,30,2012-10-12 16:55:00
12:15 PM,62.6,46.4,55,30.36,10.0,North,3.5,-,N/A,,Clear,10,2012-10-12 17:15:00
12:35 PM,62.6,48.2,59,30.36,10.0,ENE,5.8,-,N/A,,Clear,60,2012-10-12 17:35:00
12:55 PM,64.4,46.4,52,30.35,10.0,Calm,Calm,-,N/A,,Mostly Cloudy,0,2012-10-12 17:55:00
1:35 PM,62.6,46.4,55,30.33,9.0,Calm,Calm,-,N/A,,Partly Cloudy,0,2012-10-12 18:35:00
1:55 PM,64.4,46.4,52,30.33,10.0,SSE,3.5,-,N/A,,Clear,150,2012-10-12 18:55:00
2:15 PM,66.2,48.2,52,30.31,10.0,ENE,4.6,-,N/A,,Clear,60,2012-10-12 19:15:00
2:35 PM,66.2,48.2,52,30.30,9.0,ENE,3.5,-,N/A,,Clear,70,2012-10-12 19:35:00
2:55 PM,66.2,48.2,52,30.29,10.0,East,4.6,-,N/A,,Clear,80,2012-10-12 19:55:00
3:15 PM,66.2,48.2,52,30.29,10.0,NNE,4.6,-,N/A,,Clear,30,2012-10-12 20:15:00
3:35 PM,66.2,46.4,49,30.30,10.0,East,6.9,-,N/A,,Clear,100,2012-10-12 20:35:00
3:55 PM,66.2,46.4,49,30.29,10.0,NE,6.9,-,N/A,,Clear,40,2012-10-12 20:55:00
4:15 PM,66.2,48.2,52,30.28,10.0,ENE,6.9,-,N/A,,Clear,60,2012-10-12 21:15:00
4:35 PM,66.2,46.4,49,30.27,10.0,ESE,6.9,-,N/A,,Clear,120,2012-10-12 21:35:00
5:15 PM,64.4,46.4,52,30.26,10.0,ENE,3.5,-,N/A,,Clear,60,2012-10-12 22:15:00
5:55 PM,62.6,48.2,59,30.26,10.0,NE,3.5,-,N/A,,Clear,40,2012-10-12 22:55:00
6:15 PM,60.8,48.2,63,30.27,10.0,Calm,Calm,-,N/A,,Clear,0,2012-10-12 23:15:00
6:35 PM,57.2,48.2,72,30.27,10.0,Calm,Calm,-,N/A,,Clear,0,2012-10-12 23:35:00
6:55 PM,53.6,48.2,82,30.27,10.0,Calm,Calm,-,N/A,,Clear,0,2012-10-12 23:55:00
7:15 PM,53.6,48.2,82,30.28,1.5,Calm,Calm,-,N/A,,Clear,0,2012-10-13 00:15:00
7:35 PM,53.6,48.2,82,30.28,10.0,Calm,Calm,-,N/A,,Clear,0,2012-10-13 00:35:00
7:55 PM,51.8,46.4,82,30.28,10.0,Calm,Calm,-,N/A,,Clear,0,2012-10-13 00:55:00
8:15 PM,51.8,48.2,88,30.28,10.0,Calm,Calm,-,N/A,,Clear,0,2012-10-13 01:15:00
8:35 PM,55.4,48.2,77,30.27,10.0,ENE,3.5,-,N/A,,Clear,70,2012-10-13 01:35:00
9:15 PM,55.4,46.4,72,30.28,10.0,Calm,Calm,-,N/A,,Clear,0,2012-10-13 02:15:00
9:35 PM,55.4,46.4,72,30.27,10.0,Calm,Calm,-,N/A,,Clear,0,2012-10-13 02:35:00
9:55 PM,55.4,46.4,72,30.27,10.0,East,3.5,-,N/A,,Clear,80,2012-10-13 02:55:00
10:15 PM,51.8,46.4,82,30.26,10.0,East,3.5,-,N/A,,Clear,80,2012-10-13 03:15:00
10:55 PM,53.6,46.4,77,30.26,10.0,Calm,Calm,-,N/A,,Clear,0,2012-10-13 03:55:00
11:15 PM,51.8,46.4,82,30.26,10.0,Calm,Calm,-,N/A,,Clear,0,2012-10-13 04:15:00
11:35 PM,48.2,44.6,87,30.26,5.0,Calm,Calm,-,N/A,,Clear,0,2012-10-13 04:35:00
11:55 PM,48.2,46.4,93,30.27,8.0,Calm,Calm,-,N/A,,Clear,0,2012-10-13 04:55:00